Wind_Speed
42 42 44 44 47 46 45 44 44 43 43 43 43 44 46 49 52 54 53 53 51 49 50 49 47 46 45 44 43 43 43 43 42 41 41 40 40 39 38 37 37 36 36 35
39 40 41 42 45 45 43 43 42 41 40 42 43 43 45 47 49 53 55 53 51 49 49 50 50 49 48 47 46 45 44 44 43 43 43 43 43 42 41 40 40 39 38 38
36 37 38 39 43 43 41 40 40 38 38 39 40 41 42 44 46 50 53 54 53 51 49 48 49 50 50 50 49 48 47 47 46 46 46 45 44 43 43 42 42 41 41 40
34 34 35 37 39 39 38 37 36 35 35 35 38 38 39 41 42 45 49 53 54 53 51 50 49 50 50 51 51 50 49 48 48 48 48 47 46 45 45 44 44 43 42 42
33 33 33 34 35 36 35 34 33 32 32 33 35 37 37 37 37 39 42 47 52 54 53 52 50 50 50 50 50 50 50 50 49 48 48 48 48 47 47 46 46 45 44 44
30 31 32 32 32 33 33 32 31 31 31 31 32 34 34 34 35 37 39 41 45 51 54 53 52 50 49 48 49 50 50 50 49 49 49 48 48 48 48 48 47 47 47 46
29 29 30 31 31 31 32 31 31 30 30 30 30 31 31 30 32 35 37 40 41 43 47 50 51 51 50 49 49 48 48 48 47 47 47 47 47 47 47 47 47 47 46 46
27 29 29 29 29 29 30 30 30 30 29 28 28 29 28 27 29 32 34 37 39 41 42 44 47 49 50 50 49 49 47 47 46 45 45 46 46 46 46 47 47 47 46 46
26 26 26 27 27 28 28 29 29 29 28 26 26 26 25 23 26 29 31 34 36 39 41 42 43 46 48 48 49 48 47 46 45 45 45 45 46 46 46 47 47 47 47 47
23 23 23 25 26 27 27 27 28 29 28 27 26 25 24 24 25 26 29 31 33 36 37 39 41 42 44 45 46 46 46 46 45 45 45 45 45 46 46 46 46 47 47 47
21 21 22 24 25 24 26 27 27 28 28 27 27 25 24 25 25 26 28 29 31 33 35 37 39 40 42 43 45 45 46 46 46 46 46 46 46 46 46 46 47 47 47 47
20 20 20 21 21 23 24 26 27 28 28 27 27 25 24 24 25 26 27 29 31 32 34 36 38 39 40 42 43 45 46 47 48 48 48 48 48 48 48 48 48 48 47 47
18 19 19 20 21 22 23 24 25 26 27 27 27 25 23 24 24 25 27 29 31 32 33 34 36 37 39 41 43 44 46 47 48 48 48 48 48 49 49 48 48 48 48 47
17 18 19 19 19 20 21 21 23 25 27 27 26 24 22 24 25 27 29 31 32 33 33 34 35 36 38 39 40 42 44 45 46 47 47 47 48 48 47 47 47 47 47 46
18 19 19 20 21 21 21 22 23 25 25 27 25 24 22 25 27 29 30 31 32 33 34 35 36 37 37 38 39 40 41 42 43 44 45 45 46 46 46 46 45 45 44 44
17 18 19 20 21 22 22 23 24 25 26 27 27 25 25 27 28 28 29 31 32 32 34 35 36 36 37 38 39 39 40 41 42 42 43 43 43 43 43 43 43 43 42 42
17 18 19 19 20 21 22 23 25 26 26 28 28 26 27 27 27 28 29 30 30 31 33 34 36 37 37 38 38 39 39 39 40 41 41 42 42 41 41 41 40 40 40 39
16 18 19 19 20 21 21 22 24 25 26 27 27 26 26 27 27 28 29 29 29 30 32 33 35 36 37 37 37 38 38 39 38 38 39 39 39 39 38 38 38 38 37 37
16 17 18 19 20 21 21 21 23 24 26 26 26 26 26 26 26 27 29 28 29 29 30 31 33 34 35 36 37 37 37 37 38 37 37 36 36 36 36 35 35 35 35 34
16 17 17 18 19 20 21 21 22 23 25 25 25 25 25 24 25 26 27 27 27 28 29 29 29 30 31 32 34 34 35 34 34 34 34 34 34 34 33 33 32 32 31 31
16 17 18 18 19 20 21 21 21 22 23 22 23 23 24 24 24 25 26 26 26 26 27 28 28 28 29 29 30 31 31 32 32 32 31 31 31 31 30 30 30 29 29 29
18 18 18 19 19 20 20 20 21 21 21 21 22 22 23 23 23 24 24 25 25 25 25 26 26 26 27 27 28 28 28 28 28 28 28 28 28 28 28 28 28 28 28 28
18 19 19 19 20 20 20 20 21 22 22 22 22 22 22 22 22 23 23 23 24 24 24 24 24 25 25 25 25 26 25 25 25 26 26 26 27 27 27 27 27 27 27 27
20 20 20 21 21 22 22 22 23 23 23 23 23 23 23 23 23 23 23 23 23 23 23 23 24 24 24 24 24 24 24 25 25 24 25 25 25 26 26 26 26 27 27 27
23 23 23 24 24 24 24 25 25 25 25 25 24 25 25 25 24 24 24 23 23 23 23 23 23 23 23 23 24 24 24 24 25 25 25 25 25 25 25 25 26 27 27 28
23 24 25 25 25 25 26 28 28 27 27 27 26 26 27 26 26 26 25 25 24 24 24 24 23 23 23 23 24 24 24 24 25 25 25 25 25 25 25 26 26 26 27 27
Wind_Direction
186 190 195 198 200 202 206 208 211 213 214 217 218 218 217 217 220 222 225 228 228 228 228 227 229 231 233 236 238 240 240 240 241 243 246 249 253 257 260 264 267 271 274 277
183 188 192 197 201 202 205 208 211 213 215 218 219 220 221 219 220 221 224 228 230 230 230 230 230 231 234 236 239 241 242 243 243 245 248 250 253 257 260 264 267 271 274 276
180 186 191 195 199 202 205 209 212 216 218 221 222 223 222 221 223 222 224 227 230 232 232 233 233 234 235 237 239 241 243 244 245 247 249 251 254 257 260 264 267 270 273 275
177 181 189 194 198 201 205 208 212 217 221 223 224 226 222 222 224 224 225 227 229 231 233 234 236 236 238 239 241 242 243 245 247 248 250 251 254 257 260 263 267 269 272 274
176 179 185 192 196 199 203 207 212 216 222 225 226 229 226 225 225 227 229 229 229 230 233 235 236 238 239 240 242 243 243 245 247 249 251 253 255 257 260 262 265 267 270 272
175 179 183 189 194 197 201 206 210 214 220 226 227 231 229 229 229 230 232 232 231 230 232 235 236 238 239 241 243 244 244 245 247 249 252 253 256 257 259 261 264 266 268 270
176 179 183 189 193 196 200 205 209 213 219 225 225 230 229 229 232 233 233 233 233 232 233 235 237 238 239 241 243 244 245 246 248 251 252 254 256 258 259 261 264 266 268 270
177 180 185 190 194 197 201 206 211 216 220 224 224 228 228 228 230 231 233 234 235 234 234 234 234 235 237 240 241 243 245 247 249 251 253 255 257 259 260 262 264 266 268 270
176 181 185 191 195 198 203 209 213 218 222 227 227 229 230 228 230 231 232 233 234 235 236 236 235 234 234 237 239 242 244 246 248 251 253 255 257 259 261 263 265 266 268 270
179 184 189 192 197 202 207 211 215 220 224 228 229 231 233 232 233 234 236 236 237 237 237 238 239 237 237 237 239 241 244 246 249 251 253 255 257 259 261 263 265 267 269 270
182 187 193 198 202 206 210 214 218 223 227 230 234 237 239 239 238 239 240 241 241 241 241 241 242 243 243 243 244 245 247 249 250 252 254 256 258 259 261 263 265 267 269 270
188 194 200 204 207 211 215 220 224 228 232 235 240 241 243 246 245 245 244 244 244 245 246 245 245 246 246 247 247 249 250 252 253 255 256 258 260 261 263 264 266 267 269 270
195 202 206 210 214 219 223 226 230 233 237 239 242 244 245 249 249 248 246 246 246 247 248 248 248 248 249 249 250 250 252 253 255 256 257 259 261 262 264 265 266 268 268 270
207 213 217 221 225 228 231 233 235 238 241 243 245 249 250 251 250 249 249 249 250 250 250 250 251 250 251 251 252 253 253 254 256 257 259 260 262 263 264 265 266 268 269 270
221 223 227 231 232 233 235 237 239 242 245 248 247 250 250 251 251 251 251 252 252 253 253 253 253 253 253 253 254 255 256 257 258 259 260 261 262 263 264 265 266 267 268 269
225 228 232 236 237 238 240 242 244 246 249 252 252 252 253 253 254 253 254 254 255 255 256 256 256 256 255 255 256 257 258 259 260 261 261 262 262 263 264 265 265 266 267 267
228 233 237 241 243 244 245 246 248 250 252 254 255 255 255 256 255 255 256 257 258 257 257 257 258 258 258 258 258 258 259 260 261 262 263 263 263 264 264 264 265 265 266 266
236 238 241 244 246 249 249 249 250 252 253 255 258 258 257 256 256 257 257 258 258 258 257 257 257 257 257 257 258 259 260 261 262 263 264 264 264 263 263 263 263 263 264 264
240 242 244 245 248 251 252 252 252 254 255 257 259 259 258 258 257 258 258 258 257 258 259 258 258 257 257 257 257 258 260 261 261 262 263 263 263 263 262 262 262 261 261 261
244 245 247 248 249 251 252 253 255 256 258 259 259 259 258 258 256 256 258 258 258 258 259 259 259 258 257 257 257 258 259 260 261 261 262 263 262 261 261 260 260 259 259 258
248 249 252 253 254 254 255 254 255 256 260 260 259 258 257 257 256 254 256 257 258 258 258 257 258 258 258 257 257 258 259 260 260 261 262 262 261 260 259 258 257 257 256 256
254 255 255 256 257 258 257 256 256 258 259 259 259 258 258 258 257 255 254 255 257 257 256 256 256 256 257 257 257 257 259 259 259 260 260 260 258 257 256 256 256 256 255 255
257 258 259 260 260 261 260 260 259 259 259 259 259 259 258 257 256 255 255 255 255 256 255 254 255 255 255 255 255 255 257 257 257 259 259 259 258 257 256 256 256 256 255 256
260 261 263 264 264 264 263 263 262 261 261 260 260 259 258 257 256 255 255 255 254 254 254 253 253 254 254 254 253 255 256 257 257 260 260 259 258 257 256 257 257 257 257 257
265 264 265 265 266 266 266 265 265 265 264 263 262 260 259 258 257 255 254 254 254 252 252 253 252 252 252 252 253 255 255 256 257 259 259 259 258 258 258 259 259 259 259 260
270 271 269 267 267 268 268 268 267 266 267 265 264 263 260 258 257 256 255 254 253 252 252 251 251 252 254 254 253 253 254 255 256 258 259 259 259 260 260 260 260 261 262 263
Height
5634 5645 5654 5665 5674 5683 5692 5699 5706 5713 5719 5725 5731 5736 5742 5748 5756 5762 5768 5774 5781 5788 5794 5799 5804 5809 5813 5816 5819 5823 5826 5828 5831 5833 5835 5837 5839 5840 5842 5843 5843 5844 5844 5844
5636 5645 5654 5662 5671 5680 5688 5695 5702 5709 5714 5720 5725 5731 5736 5742 5749 5756 5762 5768 5775 5781 5787 5792 5797 5801 5805 5809 5812 5815 5818 5820 5823 5826 5828 5830 5832 5833 5834 5835 5836 5837 5837 5837
5637 5646 5653 5661 5669 5677 5685 5693 5700 5706 5711 5716 5722 5727 5732 5738 5744 5750 5756 5762 5768 5774 5779 5784 5788 5793 5797 5801 5804 5807 5810 5813 5815 5818 5820 5822 5824 5825 5827 5828 5829 5829 5829 5829
5636 5645 5653 5660 5668 5676 5684 5690 5697 5702 5708 5712 5718 5724 5729 5734 5739 5745 5750 5755 5760 5765 5771 5775 5780 5784 5788 5792 5796 5799 5802 5804 5807 5809 5812 5814 5815 5817 5819 5820 5820 5821 5821 5821
5638 5645 5653 5660 5668 5675 5682 5688 5695 5700 5705 5709 5714 5720 5726 5729 5735 5740 5743 5747 5752 5757 5762 5766 5771 5775 5779 5783 5787 5790 5793 5795 5798 5800 5803 5805 5807 5808 5810 5811 5812 5812 5813 5812
5640 5646 5653 5660 5666 5673 5680 5687 5692 5696 5701 5706 5711 5715 5722 5726 5730 5733 5735 5739 5743 5747 5753 5757 5762 5767 5771 5774 5778 5781 5783 5786 5789 5791 5793 5795 5797 5799 5801 5802 5803 5803 5803 5803
5641 5647 5653 5659 5665 5672 5678 5685 5690 5693 5697 5703 5707 5711 5717 5720 5723 5725 5728 5731 5735 5739 5744 5749 5754 5758 5762 5765 5768 5771 5773 5776 5779 5782 5784 5786 5788 5789 5791 5792 5793 5793 5793 5793
5643 5648 5654 5660 5665 5671 5676 5683 5688 5692 5696 5700 5703 5706 5712 5714 5716 5718 5721 5724 5728 5732 5736 5740 5744 5748 5751 5755 5758 5761 5764 5767 5770 5772 5774 5776 5778 5779 5781 5782 5782 5783 5783 5783
5645 5650 5655 5660 5665 5670 5674 5679 5685 5689 5692 5696 5699 5702 5706 5708 5710 5712 5714 5718 5721 5725 5729 5732 5735 5739 5742 5745 5749 5752 5755 5758 5760 5763 5765 5767 5768 5769 5770 5771 5772 5772 5773 5773
5647 5651 5655 5660 5664 5669 5673 5677 5682 5685 5689 5692 5695 5698 5701 5703 5705 5707 5709 5712 5714 5717 5721 5724 5727 5730 5733 5736 5739 5743 5746 5748 5751 5753 5755 5756 5758 5759 5760 5761 5762 5762 5762 5762
5648 5652 5656 5659 5663 5667 5672 5675 5678 5682 5685 5689 5691 5696 5696 5698 5700 5702 5704 5706 5708 5711 5713 5716 5719 5722 5725 5728 5730 5733 5736 5739 5741 5743 5745 5746 5748 5749 5750 5750 5751 5751 5751 5751
5648 5652 5655 5659 5662 5665 5668 5672 5675 5679 5681 5684 5687 5693 5691 5692 5694 5696 5697 5699 5701 5704 5706 5708 5711 5713 5716 5719 5721 5724 5726 5729 5731 5732 5734 5736 5737 5738 5739 5740 5740 5740 5740 5740
5649 5652 5655 5658 5662 5664 5666 5669 5671 5674 5676 5678 5682 5688 5687 5687 5688 5689 5691 5693 5695 5697 5699 5701 5703 5705 5707 5710 5712 5714 5716 5718 5720 5722 5723 5724 5726 5727 5727 5728 5729 5729 5729 5729
5649 5651 5654 5657 5659 5661 5663 5666 5667 5669 5671 5674 5677 5680 5681 5681 5681 5683 5684 5686 5688 5690 5692 5693 5695 5697 5699 5700 5702 5704 5706 5707 5709 5711 5712 5713 5714 5715 5716 5717 5717 5718 5718 5718
5647 5649 5651 5653 5655 5658 5659 5661 5663 5664 5666 5668 5671 5673 5674 5673 5674 5676 5677 5679 5680 5682 5684 5685 5687 5688 5690 5691 5693 5694 5696 5697 5699 5700 5701 5702 5703 5704 5705 5705 5706 5706 5706 5706
5645 5647 5648 5650 5651 5653 5655 5657 5658 5659 5661 5662 5663 5666 5666 5666 5668 5669 5670 5671 5673 5674 5675 5676 5678 5679 5681 5682 5683 5685 5686 5687 5688 5689 5690 5691 5692 5693 5694 5694 5695 5695 5695 5695
5642 5644 5645 5646 5647 5648 5651 5652 5652 5654 5655 5655 5656 5659 5659 5660 5661 5662 5663 5663 5665 5666 5667 5668 5669 5670 5672 5673 5674 5676 5677 5677 5678 5679 5680 5680 5681 5682 5683 5683 5684 5684 5684 5684
5639 5640 5641 5642 5644 5644 5648 5646 5646 5647 5648 5649 5650 5651 5652 5653 5654 5654 5655 5656 5657 5657 5658 5659 5660 5661 5663 5664 5665 5666 5667 5668 5668 5669 5669 5670 5671 5671 5672 5673 5673 5674 5674 5674
5634 5636 5637 5638 5638 5639 5640 5640 5640 5641 5641 5642 5643 5644 5645 5645 5647 5647 5647 5648 5648 5649 5650 5650 5651 5652 5654 5655 5656 5657 5657 5658 5659 5659 5660 5660 5661 5661 5662 5663 5663 5664 5664 5665
5630 5631 5632 5633 5633 5634 5635 5635 5634 5636 5635 5636 5636 5637 5637 5638 5640 5640 5639 5640 5640 5641 5642 5642 5643 5644 5645 5646 5647 5648 5648 5649 5649 5650 5651 5651 5652 5652 5653 5653 5654 5655 5656 5656
5626 5626 5627 5627 5627 5628 5629 5629 5629 5631 5631 5630 5629 5630 5630 5630 5632 5632 5632 5632 5633 5633 5634 5635 5635 5636 5637 5638 5638 5639 5640 5640 5641 5641 5642 5643 5643 5644 5644 5645 5646 5646 5647 5648
5621 5622 5622 5622 5622 5625 5623 5623 5624 5624 5623 5623 5623 5623 5623 5623 5624 5624 5625 5625 5625 5626 5626 5627 5628 5628 5629 5630 5630 5631 5631 5632 5633 5633 5634 5635 5635 5636 5637 5637 5638 5639 5640 5640
5616 5617 5616 5617 5618 5617 5616 5616 5616 5616 5616 5616 5616 5616 5616 5617 5617 5617 5618 5618 5618 5619 5619 5620 5620 5621 5621 5622 5623 5624 5624 5625 5625 5626 5627 5627 5628 5628 5629 5630 5630 5631 5632 5633
5610 5610 5610 5610 5610 5610 5609 5609 5609 5609 5609 5609 5609 5609 5609 5610 5610 5610 5610 5611 5611 5612 5612 5612 5613 5614 5614 5615 5616 5617 5618 5618 5619 5619 5620 5620 5621 5621 5622 5622 5623 5624 5624 5625
5604 5603 5603 5603 5603 5602 5602 5601 5601 5601 5601 5601 5601 5601 5601 5602 5602 5603 5603 5603 5604 5604 5605 5605 5606 5607 5607 5608 5609 5610 5611 5611 5612 5613 5613 5614 5614 5614 5615 5615 5616 5617 5617 5617
5596 5596 5595 5595 5595 5595 5594 5593 5593 5593 5593 5592 5593 5593 5593 5593 5594 5594 5595 5596 5596 5597 5598 5598 5599 5600 5600 5601 5602 5603 5603 5604 5605 5606 5606 5607 5607 5608 5608 5608 5609 5609 5609 5609